Tracking 28126 objects as of 2-Oct-2023
HD Live streaming from Space Station
objects crossing your sky now

STARLINK-30355

Track STARLINK-30355 now!
10-day predictions
STARLINK-30355 is classified as:


NORAD ID: 57777
Int'l Code: 2023-134G
Perigee: 427.1 km
Apogee: 430.3 km
Inclination: 43.0 °
Period: 93.0 minutes
Semi major axis: 6799 km
RCS: Unknown
Launch date: September 4, 2023
Source: United States (US)
Launch site: AIR FORCE EASTERN TEST RANGE (AFETR)
Your satellite tracking list
Your tracking list is empty




NASA's NSSDC Master Catalog

Two Line Element Set (TLE):
1 57777U 23134G   23274.70840153 -.00120666  00000-0 -22535-2 0  9994
2 57777  42.9995 356.0561 0002335   8.2556 351.8341 15.48351016  5552
Source of the keplerian elements: AFSPC